This is the latest recevied weather packets stored in our database for station/object KC5AV. If no packets are shown the sender has not sent any weather packets the latest 10 day(s).
| Time | Temp. | Humidity | Pressure | Rain* | Wind** | Luminosity | Snow |
|---|---|---|---|---|---|---|---|
| 1777565247 | 16.67° C | 87% | 1015.7 hPa | 0 mm | - | 130 W/m² | - |
| 1777564943 | 16.67° C | 87% | 1015.9 hPa | 0 mm | - | 113 W/m² | - |
| 1777563726 | 16.67° C | 87% | 1015.4 hPa | 0 mm | - | 105 W/m² | - |
| 1777563116 | 16.67° C | 87% | 1015.3 hPa | 0 mm | - | 128 W/m² | - |
| 1777562208 | 17.22° C | 88% | 1015 hPa | 0 mm | - | 131 W/m² | - |
| 1777561906 | 17.22° C | 87% | 1015.2 hPa | 0 mm | - | 135 W/m² | - |
| 1777558347 | 16.11° C | 92% | 1015.3 hPa | 0 mm | - | 65 W/m² | - |
| 1777558044 | 16.11° C | 92% | 1015.1 hPa | 0 mm | - | 66 W/m² | - |
| 1777557437 | 16.11° C | 92% | 1015.2 hPa | 0 mm | - | 66 W/m² | - |
| 1777555921 | 16.11° C | 94% | 1015.3 hPa | 0 mm | - | 54 W/m² | - |
| 1777552880 | 15.56° C | 96% | 1014.8 hPa | 0 mm | - | 21 W/m² | - |
| 1777552575 | 15.56° C | 96% | 1014.8 hPa | 0 mm | - | 21 W/m² | - |
| 1777551968 | 15.56° C | 96% | 1014.7 hPa | 0 mm | - | 16 W/m² | - |
| 1777551665 | 15.56° C | 96% | 1014.9 hPa | 0 mm | - | 24 W/m² | - |
| 1777551059 | 15.56° C | 96% | 1014.7 hPa | 0 mm | - | 15 W/m² | - |
| 1777550756 | 15.56° C | 96% | 1014.8 hPa | 0 mm | - | 9 W/m² | - |
| 1777550149 | 15.56° C | 96% | 1014.7 hPa | 0 mm | - | 4 W/m² | - |
| 1777549238 | 15.56° C | 96% | 1014 hPa | 0 mm | - | 1 W/m² | - |
| 1777548328 | 15.56° C | 96% | 1014 hPa | 0 mm | - | 1 W/m² | - |
| 1777547726 | 15.56° C | 96% | 1014.2 hPa | 0 mm | - | 0 W/m² | - |
| 1777545605 | 15.56° C | 96% | 1013.9 hPa | 0 mm | - | 0 W/m² | - |
| 1777545301 | 15.56° C | 96% | 1014.1 hPa | 0 mm | - | 0 W/m² | - |
| 1777544998 | 15.56° C | 97% | 1014 hPa | 0 mm | - | 0 W/m² | - |
| 1777544695 | 15.56° C | 97% | 1014.1 hPa | 0 mm | - | 0 W/m² | - |
| 1777544390 | 15.56° C | 97% | 1014 hPa | 0 mm | - | 0 W/m² | - |
* Rain latest hour (hover to see other rain measurements)
** Current wind speed in m/s (hover to see current wind gust speed)